Regional Weather Roundup
Issued by NWS

Home | Current Version | Previous Version | Text Only | Print | Product List | Glossary On
Versions: 1 2 3 4 5 6 7 8 9 10 11 12 13 14 15 16 17 18 19 20 21 22 23 24 25 26 27 28 29 30 31 32 33 34 35 36 37 38 39 40 41 42 43 44 45 46 47 48 49 50
000
ASUS43 KBIS 071210
RWRND

NORTH DAKOTA REGIONAL WEATHER ROUNDUP
NATIONAL WEATHER SERVICE BISMARCK ND
600 AM CST WED DEC 07 2016

NOTE: "FAIR" INDICATES FEW OR NO CLOUDS BELOW 12,000 FEET WITH NO
SIGNIFICANT WEATHER AND/OR OBSTRUCTIONS TO VISIBILITY.


NDZ001>003-009>011-017-071300-
NORTHWEST NORTH DAKOTA

CITY           SKY/WX    TMP DP  RH WIND       PRES   REMARKS
WILLISTON      MOCLDY    -1  -8  72 W13       30.30R WCI -19
6HR MIN TEMP:  -1; 6HR MAX TEMP:   4; 6HR PCP: TRACE;

MINOT          LGT SNOW   5   0  79 W35G45    30.09R WCI -20
MINOT AFB      LGT SNOW   3  -1  83 NW36G43   30.08R VSB 3/4 WCI -24
$$

NDZ018>021-031>035-040>046-071300-
SOUTHWEST NORTH DAKOTA

CITY           SKY/WX    TMP DP  RH WIND       PRES   REMARKS
BISMARCK       CLOUDY     6   1  80 NW17G32   30.16R WCI -13
6HR MIN TEMP:   4; 6HR MAX TEMP:   6; 6HR PCP:  0.01;

DICKINSON      MIX PCPN   2  -4  76 NW24G33   30.17R WCI -21
GARRISON         N/A      4  -1  80 NW36G46   30.12R WCI -22
6HR MIN TEMP:   4; 6HR MAX TEMP:   5;

HETTINGER ARPT CLOUDY     2  -4  76 NW26      30.19R WCI -22
$$

NDZ004>008-012>016-024-026-027-054-071300-
NORTHEAST NORTH DAKOTA

CITY           SKY/WX    TMP DP  RH WIND       PRES   REMARKS
GRAND FORKS    LGT SNOW  15  10  80 NW24G35   29.86R BLWGSNOWWCI  -4
GRND FRKS AFB  LGT SNOW  14   9  79 NW23G29   29.88R WCI  -5
DEVILS LAKE    LGT SNOW   9   5  84 NW31G38   29.92R FOG     WCI -14
$$

NDZ022-023-025-028>030-036>039-047>053-071300-
SOUTHEAST NORTH DAKOTA

CITY           SKY/WX    TMP DP  RH WIND       PRES   REMARKS
FARGO          MOCLDY    13   6  74 W24G33    29.94R WCI  -7
6HR MIN TEMP:  12; 6HR MAX TEMP:  15; 6HR PCP: TRACE;

JAMESTOWN      MIX PCPN   8   3  80 NW28G38   29.99R WCI -14
$$





USA.gov is the U.S. government's official web portal to all federal, state and local government web resources and services.